Bilbao, Spain

6:47 AM CET on February 11, 2016 (GMT +0100)
Bilbao

Weather History for LEBB - September, 2013

Change the Weather History Date:

Wednesday, September 18, 2013

  Actual Average Record
Temperature  
Mean Temperature 66 °F -  
Max Temperature 73 °F 72 °F 95 °F (2003)
Min Temperature 59 °F 55 °F 50 °F (2001)
Cooling Degree Days 1    
Growing Degree Days 16 (Base 50)    
Moisture  
Dew Point 60 °F    
Average Humidity 82    
Maximum Humidity 94    
Minimum Humidity 64    
Precipitation  
Precipitation 0.00 in - - ()
Sea Level Pressure  
Sea Level Pressure 30.04 in    
Wind  
Wind Speed 5 mph ()    
Max Wind Speed 16 mph    
Max Gust Speed -    
Visibility 5.8 miles    
Events Rain    
Averages and records for this station are not official NWS values.
T = Trace of Precipitation, MM = Missing Value Source: Averaged Metar Reports

Daily Weather History Graph

Daily Weather History Graph

Search for Another Location

Airport or City:

Trip Planner

Search our weather history database for the weather conditions in past years. The results will help you decide how hot, cold, wet, or windy it might be!

Date:

Astronomy

Sep. 18, 2013 Rise Set
Actual Time 7:54 AM CEST 8:16 PM CEST
Civil Twilight 7:25 AM CEST 8:44 PM CEST
Nautical Twilight 6:52 AM CEST 9:18 PM CEST
Astronomical Twilight 6:17 AM CEST 9:52 PM CEST
Moon 7:30 PM CEST (9/18) 6:39 AM CEST (9/18)
Length of Visible Light 13h 18m
Length of Day
12h 21m
Waxing Gibbous, 99% of the Moon is Illuminated
Sep 18
Waxing Gibbous
Sep 19
Full
Sep 27
Last Quarter
Oct 5
New
Oct 12
First Quarter

Hourly Weather History & Observations

Time (CEST) Temp. Dew Point Humidity Pressure Visibility Wind Dir Wind Speed Gust Speed Precip Events Conditions
5:00 AM 59.0 °F 57.2 °F 94% 30.04 in 6.2 mi Variable 1.2 mph - N/A   Scattered Clouds
5:30 AM 59.0 °F 57.2 °F 94% 30.01 in 6.2 mi Variable 2.3 mph - N/A   Scattered Clouds
6:00 AM 59.0 °F 57.2 °F 94% 30.01 in 6.2 mi East 3.5 mph - N/A   Mostly Cloudy
6:30 AM 59.0 °F 57.2 °F 94% 30.01 in 6.2 mi Variable 2.3 mph - N/A   Mostly Cloudy
7:00 AM 59.0 °F 57.2 °F 94% 30.01 in 6.2 mi Variable 1.2 mph - N/A   Mostly Cloudy
7:30 AM 59.0 °F 57.2 °F 94% 30.01 in 6.2 mi Calm Calm - N/A   Mostly Cloudy
8:00 AM 59.0 °F 57.2 °F 94% 30.04 in 6.2 mi Variable 2.3 mph - N/A   Mostly Cloudy
8:30 AM 60.8 °F 57.2 °F 88% 30.04 in 3.1 mi Calm Calm - N/A   Light Drizzle
9:00 AM 59.0 °F 57.2 °F 94% 30.04 in 5.6 mi Variable 1.2 mph - N/A   Light Drizzle
9:30 AM 60.8 °F 59.0 °F 94% 30.04 in 5.6 mi Variable 2.3 mph - N/A   Mostly Cloudy
10:00 AM 62.6 °F 59.0 °F 88% 30.04 in 6.2 mi Variable 1.2 mph - N/A   Mostly Cloudy
10:30 AM 62.6 °F 60.8 °F 94% 30.04 in 6.2 mi ESE 3.5 mph - N/A   Mostly Cloudy
11:00 AM 64.4 °F 60.8 °F 88% 30.04 in 6.2 mi Variable 1.2 mph - N/A   Mostly Cloudy
11:30 AM 66.2 °F 60.8 °F 83% 30.06 in 6.2 mi Variable 1.2 mph - N/A   Mostly Cloudy
12:00 PM 68.0 °F 60.8 °F 78% 30.06 in 6.2 mi Calm Calm - N/A   Mostly Cloudy
12:30 PM 69.8 °F 62.6 °F 78% 30.06 in 6.2 mi NNW 12.7 mph - N/A   Mostly Cloudy
1:00 PM 69.8 °F 60.8 °F 73% 30.06 in 6.2 mi NW 10.4 mph - N/A   Mostly Cloudy
1:30 PM 71.6 °F 59.0 °F 64% 30.04 in 6.2 mi NW 9.2 mph - N/A   Mostly Cloudy
2:00 PM 71.6 °F 60.8 °F 69% 30.04 in 6.2 mi NW 12.7 mph - N/A   Mostly Cloudy
2:30 PM 71.6 °F 62.6 °F 73% 30.04 in 6.2 mi NNW 13.8 mph - N/A   Mostly Cloudy
3:00 PM 71.6 °F 60.8 °F 69% 30.04 in 6.2 mi NNW 12.7 mph - N/A   Mostly Cloudy
3:30 PM 71.6 °F 60.8 °F 69% 30.04 in 6.2 mi NW 15.0 mph - N/A   Mostly Cloudy
4:00 PM 73.4 °F 60.8 °F 65% 30.04 in 6.2 mi NNW 13.8 mph - N/A   Mostly Cloudy
4:30 PM 71.6 °F 62.6 °F 73% 30.04 in 6.2 mi NNW 15.0 mph - N/A   Mostly Cloudy
5:00 PM 73.4 °F 62.6 °F 69% 30.04 in 6.2 mi NNW 13.8 mph - N/A   Mostly Cloudy
5:30 PM 71.6 °F 60.8 °F 69% 30.04 in 6.2 mi NNW 13.8 mph - N/A   Mostly Cloudy
6:00 PM 71.6 °F 60.8 °F 69% 30.04 in 6.2 mi NNW 16.1 mph - N/A   Mostly Cloudy
6:30 PM 69.8 °F 60.8 °F 73% 30.04 in 6.2 mi NW 11.5 mph - N/A   Mostly Cloudy
7:00 PM 69.8 °F 60.8 °F 73% 30.04 in 6.2 mi NNW 11.5 mph - N/A   Mostly Cloudy
7:30 PM 69.8 °F 60.8 °F 73% 30.04 in 6.2 mi NW 11.5 mph - N/A   Mostly Cloudy
8:00 PM 69.8 °F 60.8 °F 73% 30.04 in 6.2 mi NW 10.4 mph - N/A   Mostly Cloudy
8:30 PM 68.0 °F 60.8 °F 78% 30.04 in 6.2 mi NW 9.2 mph - N/A   Mostly Cloudy
9:00 PM 68.0 °F 60.8 °F 78% 30.06 in 6.2 mi NW 6.9 mph - N/A   Mostly Cloudy
9:30 PM 68.0 °F 60.8 °F 78% 30.06 in 6.2 mi WNW 12.7 mph - N/A   Mostly Cloudy
10:00 PM 66.2 °F 62.6 °F 88% 30.06 in 5.0 mi WNW 10.4 mph - N/A   Light Drizzle
10:30 PM 66.2 °F 62.6 °F 88% 30.06 in 5.0 mi NW 9.2 mph - N/A   Light Drizzle
10:54 PM 64.4 °F 62.6 °F 94% 30.09 in 2.2 mi WNW 10.4 mph - N/A Rain Rain
11:00 PM 64.4 °F 62.6 °F 94% 30.09 in 2.5 mi WNW 10.4 mph - N/A Rain Light Rain
11:09 PM 64.4 °F 62.6 °F 94% 30.06 in 5.0 mi WNW 6.9 mph - N/A   Mostly Cloudy
11:30 PM 64.4 °F 62.6 °F 94% 30.06 in 5.0 mi Variable 2.3 mph - N/A   Light Drizzle